{"data":{"norad_id":46052,"intl_designator":"2020-055AB","name":"STARLINK-1541","alt_names":[],"object_type":"PAYLOAD","status":"ACTIVE","operator":null,"country":"US","launch_date":"2020-08-07","launch_site_code":"AFETR","launch_vehicle":null,"mission":null,"orbit_class":"UNKNOWN","rcs_meters":null,"size_class":null,"mass_kg":null,"dimensions":null,"purposes":["comms"],"wikipedia_slug":null,"has_3d_model":false,"image_url":null,"decayed_at":null,"tle_current":{"epoch":"2026-07-24T17:08:27.436416Z","epoch_age_seconds":5010900,"freshness":"OLD","line1":"1 46052U 20055AB  26205.71420644  .11230242  12472-4  37607-3 0  9993","line2":"2 46052  53.1359 157.6174 0004616 266.0662  93.9860 16.44481002330574","mean_motion":16.44481002,"eccentricity":0.0004616,"inclination_deg":53.1359,"raan_deg":157.6174,"arg_perigee_deg":266.0662,"mean_anomaly_deg":93.986,"bstar":0.00037607,"rev_number":33057,"period_min":87.565620900983,"perigee_km":150.89430528408,"apogee_km":156.92469061098,"semimajor_km":6532.0464979475,"source":"CELESTRAK","updated_at":"2026-07-26T09:00:43.908724Z"}}}